This is the latest recevied weather packets stored in our database for station/object KC3BHK-2. If no packets are shown the sender has not sent any weather packets the latest 10 day(s).
| Time | Temp. | Humidity | Pressure | Rain* | Wind** | Luminosity | Snow |
|---|---|---|---|---|---|---|---|
| 1777742281 | 16.67° C | - | - | 0 mm | 1.34 m/s, 305° | - | - |
| 1777741974 | 16.67° C | - | - | 0 mm | 2.24 m/s, 260° | - | - |
| 1777741669 | 16.67° C | - | - | 0 mm | 6.26 m/s, 290° | - | - |
| 1777741364 | 17.78° C | - | - | 0 mm | 2.68 m/s, 291° | - | - |
| 1777741060 | 16.67° C | - | - | 0 mm | 1.79 m/s, 278° | - | - |
| 1777740755 | 16.67° C | - | - | 0 mm | 3.13 m/s, 291° | - | - |
| 1777740450 | 16.67° C | - | - | 0 mm | 2.68 m/s, 212° | - | - |
| 1777740143 | 16.67° C | - | - | 0 mm | 2.68 m/s, 304° | - | - |
| 1777739838 | 15.56° C | - | - | 0 mm | 0.45 m/s, 229° | - | - |
| 1777739533 | 15.56° C | - | - | 0 mm | 0.89 m/s, 27° | - | - |
| 1777739229 | 16.11° C | - | - | 0 mm | 1.34 m/s, 17° | - | - |
| 1777738924 | 15.56° C | - | - | 0 mm | 6.26 m/s, 266° | - | - |
| 1777738006 | 16.67° C | - | - | 0 mm | 4.92 m/s, 269° | - | - |
| 1777737702 | 15.56° C | - | - | 0 mm | 2.68 m/s, 339° | - | - |
| 1777737398 | 15° C | - | - | 0 mm | 1.79 m/s, 338° | - | - |
| 1777737093 | 15° C | - | - | 0 mm | 5.36 m/s, 273° | - | - |
| 1777736788 | 15° C | - | - | 0 mm | 2.68 m/s, 315° | - | - |
| 1777736481 | 14.44° C | - | - | 0 mm | 3.13 m/s, 253° | - | - |
| 1777736176 | 14.44° C | - | - | 0 mm | 1.34 m/s, 21° | - | - |
| 1777735871 | 15° C | - | - | 0 mm | 3.13 m/s, 302° | - | - |
| 1777735567 | 15° C | - | - | 0 mm | 6.26 m/s, 273° | - | - |
| 1777735262 | 14.44° C | - | - | 0 mm | 1.34 m/s, 346° | - | - |
| 1777734957 | 14.44° C | - | - | 0 mm | 0.45 m/s, 298° | - | - |
| 1777734650 | 13.89° C | - | - | 0 mm | 4.92 m/s, 284° | - | - |
| 1777734040 | 13.89° C | - | - | 0 mm | 6.26 m/s, 270° | - | - |
* Rain latest hour (hover to see other rain measurements)
** Current wind speed in m/s (hover to see current wind gust speed)